Flag for U.S.A. Weather past 2 weeks in Augusta, Maine, U.S.A.

Now
57 °F

Clear.


Feels Like: 57 °F
Forecast: 51 / 80 °F
Wind: No wind

Location: Augusta State Airport

Current Time: May 7, 2015 at 4:51:59 AM

Latest Report: May 7, 2015 at 3:53 AM


Visibility: 10 mi

Pressure: 30.13 "Hg

Humidity: 41%

Dew point: 33 °F

Location of AugustaLocation

Historic Weather in Augusta — Graph

°F

Augusta temperature yesterday

Maximum temperature yesterday: 75 °F (at 3:53 PM)
Minimum temperature yesterday: 51 °F (at 2:53 AM)
Average temperature yesterday: 61 °F

Past Weeks' High & Low Weather Summary

 TemperatureHumidityPressure
High79 °F (May 4, 1:53 PM)100% (May 3, 3:53 AM)30.29 "Hg (May 3, 3:53 AM)
Low33 °F (Apr 25, 2:53 AM)13% (May 5, 2:53 PM)29.39 "Hg (Apr 23, 3:53 AM)
Average49 °F60%29.83 "Hg
* Reported Apr 22 3:53 AM — May 7 3:53 AM, Augusta, Weather by CustomWeather, © 2015

Note: Actual official high and low records may vary slightly from our data, if they occured in-between our weather recording intervals... More about our weather records

Advertising

Augusta weather history for previous 24 hours

 ConditionsComfort  
Time TempWeatherWind HumidityBarometerVisibility
3:53 AM
Thu, May 7
57 °FClear.No wind41%30.13 "Hg10 mi
2:53 AM58 °FClear.5 mph39%30.12 "Hg10 mi
1:53 AM55 °FClear.6 mph49%30.13 "Hg10 mi
12:53 AM56 °FClear.5 mph46%30.13 "Hg10 mi
11:53 PM
Wed, May 6
57 °FClear.5 mph44%30.13 "Hg10 mi
10:53 PM53 °FClear.5 mph52%30.13 "Hg10 mi
9:53 PM55 °FClear.5 mph49%30.13 "Hg10 mi
8:53 PM58 °FClear.7 mph43%30.13 "Hg10 mi
7:53 PM61 °FSunny.8 mph36%30.11 "Hg10 mi
6:53 PM65 °FSunny.6 mph31%30.11 "Hg10 mi
5:53 PM74 °FSunny.12 mph19%30.10 "Hg10 mi
4:53 PM75 °FSunny.12 mph18%30.11 "Hg10 mi
3:53 PM75 °FPassing clouds.10 mph18%30.12 "Hg10 mi
2:53 PM74 °FPassing clouds.14 mph19%30.14 "Hg10 mi
1:53 PM73 °FSunny.13 mph19%30.16 "Hg10 mi
12:53 PM71 °FSunny.10 mph21%30.19 "Hg10 mi
11:53 AM68 °FSunny.10 mph22%30.22 "Hg10 mi
10:53 AM65 °FSunny.10 mph26%30.25 "Hg10 mi
9:53 AM63 °FSunny.6 mph27%30.27 "Hg10 mi
8:53 AM62 °FSunny.5 mph34%30.28 "Hg10 mi
7:53 AM56 °FSunny.5 mph40%30.29 "Hg10 mi
6:53 AM52 °FSunny.5 mph47%30.28 "Hg10 mi
5:53 AM51 °FClear.6 mph39%30.27 "Hg10 mi
4:53 AM51 °FClear.3 mph39%30.26 "Hg10 mi
Weather by CustomWeather, © 2015

See weather overviewHow to use our weather pages